Weather in Chipata

Zambia     13°38′05″S   32°38′42″E
temp.,
°C
wind,
m/s
gust,
m/s
humid.,
%
clouds,
%
prec.,
mm/h
press.,
hPa
HPBL,
m
27 october, wed
wed2723:00+22ese412500 0.0 1016540
02:00+21e412610 0.0 1015627
05:00+20e411700 0.0 1017632
08:00+24e58529 0.0 10181295
11:00+30e5634100 0.1 10152767
14:00+26sse464793 0.4 10141166
17:00+25se4751100 0.0 10141124
20:00+20se39774 1.1 1017335
28 october, thu
thu2823:00+20ese411762 0.0 1017620
02:00+19se310775 0.0 1015467
05:00+17se29845 0.0 1017337
08:00+22se5761100 0.0 10181088
11:00+25se4551100 0.1 10161586
14:00+25sse454998 0.1 10131278
17:00+25e3545100 0.0 1013879
20:00+21e226069 0.0 101542
29 october, fri
fri2923:00+19se26660 0.0 1015177
02:00+17ese26665 0.0 1013160
05:00+15se277523 0.0 1015200
08:00+22se564974 0.0 1016685
11:00+29sse332853 0.0 10121973
14:00+32s432054 0.0 10082785
17:00+29s5422100 0.0 10091589
20:00+22sse310405 0.0 1012354
30 october, sat
sat3023:00+19se26475 0.0 1012175
02:00+18ese24505 0.0 101180
05:00+17e23505 0.0 101242
08:00+26e34285 0.0 1012770
11:00+33ese34155 0.0 10092523
14:00+34sse43155 0.0 10053566
17:00+32s441826 0.0 10062179
20:00+25sse311315 0.0 1009309
31 october, sun
sun3123:00+23e3103529 0.0 1009258
02:00+23e4133461 0.0 1008512
05:00+21ene412515 0.0 1011486
08:00+27ene4638100 0.0 1012957
11:00+34e332269 0.0 10092697
14:00+29ne4731100 0.3 1007553
17:00+30e35254 0.0 1006778
20:00+24e264516 0.0 1010145